Regional Weather Roundup
Issued by NWS Newport/Morehead, NC

Current Version | Previous Version | Text Only | Print | Product List | Glossary On
Versions: 1 2 3 4 5 6 7 8 9 10 11 12 13 14 15 16 17 18 19 20 21 22 23 24 25 26 27 28 29 30 31 32 33 34 35 36 37 38 39 40 41 42 43 44 45 46 47 48 49 50
000
ASUS42 KMHX 021522
RWRMHX
WEATHER ROUNDUP FOR EASTERN NORTH CAROLINA
NATIONAL WEATHER SERVICE NEWPORT/MOREHEAD CITY NC
1100 AM EDT THU OCT 02 2014

NOTE: "FAIR" INDICATES FEW OR NO CLOUDS BELOW 12,000 FEET
WITH NO SIGNIFICANT WEATHER AND/OR OBSTRUCTIONS TO VISIBILITY

NCZ015>017-031-032-045>047-102-103-021600-
NORTH COAST

CITY           SKY/WX    TMP DP  RH WIND       PRES   REMARKS
EDENTON        CLOUDY    72  63  73 CALM      30.12F
ELIZABETH CITY FAIR      72  64  76 N5        30.12S
KITTY HAWK     PTSUNNY   72  62  71 N8        30.10S
MANTEO         PTSUNNY   71  64  78 N8        30.11S

$$

NCZ045>047-081-094-103-104-021600-
CENTRAL COAST

CITY           SKY/WX    TMP DP  RH WIND       PRES   REMARKS
FRISCO         PTSUNNY   71  63  75 VRB6      30.11S
SWANQUARTER      N/A     72 N/A N/A NE5       30.09S

$$

NCZ095-097-098-100-101-021600-
SOUTHERN COAST

CITY           SKY/WX    TMP DP  RH WIND       PRES   REMARKS
BEAUFORT       FAIR      75  66  73 NW5       30.11S
CEDAR ISLAND     N/A     73 N/A N/A N6        30.15S
JACKSONVILLE   FAIR      76  65  68 CALM      30.11S
NEWPORT        NOT AVBL
PINEY ISLAND   FAIR      74  63  68 NE8       30.11S
WILMINGTON     FAIR      78  67  68 W6        30.12R


$$

NCZ011>013-027>030-043-044-078>080-089-090>093-098-021600-
COASTAL PLAIN

CITY           SKY/WX    TMP DP  RH WIND       PRES   REMARKS
AHOSKIE        PTSUNNY   71  63  76 N3        30.13S
CLINTON        FAIR      77  68  75 CALM      30.12S
ELIZABETHTOWN  FAIR      77  64  63 W7        30.12S
GOLDSBORO      FAIR      74  71  89 CALM      30.11S
GREENVILLE     FAIR      73  64  73 CALM      30.13S
HAVELOCK       FAIR      76  66  71 N6        30.12F
KENANSVILLE      N/A     77  64  65 CALM      30.13S
KINSTON        FAIR      70  70 100 CALM      30.13S
NEW BERN       FAIR      77  65  66 N3        30.13S
RICHLANDS      FAIR      77  63  61 CALM      30.12S
ROANOKE RAPIDS NOT AVBL
ROCKY MOUNT    FAIR      73  66  78 CALM      30.13S
WASHINGTON     FAIR      73  64  74 CALM      30.12F
WHITEVILLE     FAIR      76  64  66 CALM      30.12F

$$

AMZ130-135-150-152-154-156-158-170-250-252-270-ANZ085-086-088-633-658-670-021600-
MARINE OBSERVATIONS

STATION/POSITION TIME  TEMP    WIND        PRES    WAVE   SWELL
                       AIR SEA DIR/SP/G            HT/PER HT/PER
                 (UTC) (F)     (DEG/KT/KT) (MB)    (FT/S) (FT/S)
CHESAPEAKE LIGHT 1500   67     360/ 11/ 12 1020.3
BUOY 44014       1500   69 71  350/ 14/ 16 1018.5    5/ 7   3/ 7
DUCK             1500   69 72  350/ 12/ 13 1018.9
2E DUCK          1500                        N/A     3/ 7
OREGON INLET     1500   72 73  350/  9/ 12 1019.4
BUOY 44095       1500      72                N/A     4/ 7   2/13
20E OREGON INLET NOT AVBL
HATTERAS CG      1500   70 73  330/  9/ 11 1020.0
DIAMOND BUOY     1500   71     340/ 12/ 14 1019.3    3/ 8   2/ 8
CAPE LOOKOUT     1500   74     360/  3/  5 1019.5
BEAUFORT LAB     1500   73 74  330/  5/  6 1019.1
30 SE NEW RIVER  1500   74 79   10/  6/  6 1019.3    2/12   2/12
5 SE WRIGHTSVILL 1500   71 76   30/  2/  2   N/A
BUOY 41002       1357   79 80   30/ 12/ 14 1018.2    4/ 7   3/ 7
BUOY 41004       1500   78 81   50/  8/ 12 1019.2    2/ 7   2/ 7

$$


USA.gov is the U.S. government's official web portal to all federal, state and local government web resources and services.